Fairfield, IL

9:26 PM CST on December 11, 2019 (GMT -0600)
Fairfield Municipal

Weather History for KFWC - October, 2019

Change the Weather History Date:

Monday, October 28, 2019

  Actual Average (WUND) Record (WUND)
Temperature  
Mean Temperature 50 °F -  
Max Temperature 58 °F - - (-1)
Min Temperature 43 °F - - (-1)
Degree Days  
Heating Degree Days 14    
Moisture  
Dew Point 51 °F    
Average Humidity 88    
Maximum Humidity 100    
Minimum Humidity 73    
Precipitation  
Precipitation 0.00 in - - ()
Sea Level Pressure  
Sea Level Pressure 30.06 in    
Wind  
Wind Speed 1 mph ()    
Max Wind Speed 5 mph    
Max Gust Speed -    
Visibility 9.2 miles    
Events Rain    
Averages and records for this station are not official NWS values.
T = Trace of Precipitation, MM = Missing Value Source: Averaged Metar Reports

Daily Weather History Graph

Daily Weather History Graph

Search for Another Location

Airport or City:

Astronomy

Oct. 28, 2019 Rise Set
Actual Time 7:15 AM CDT 5:58 PM CDT
Civil Twilight 6:48 AM CDT 6:25 PM CDT
Nautical Twilight 6:17 AM CDT 6:57 PM CDT
Astronomical Twilight 5:46 AM CDT 7:27 PM CDT
Moon 7:37 AM CDT (10/28) 6:44 PM CDT (10/28)
Length of Visible Light 11h 37m
Length of Day
10h 43m
New Moon, 0% of the Moon is Illuminated
Oct 28
New Moon
Nov 4
First Quarter
Nov 12
Full
Nov 19
Last Quarter
Nov 26
New

Hourly Weather History & Observations

Time (CDT) Temp. Dew Point Humidity Pressure Visibility Wind Dir Wind Speed Gust Speed Precip Events Conditions
12:15 AM 43.9 °F 43.9 °F 100% 30.04 in 10.0 mi Calm Calm - N/A   Clear
12:35 AM 46.9 °F 46.9 °F 100% 30.04 in 10.0 mi Calm Calm - N/A   Clear
12:55 AM 48.2 °F 48.2 °F 100% 30.05 in 10.0 mi Calm Calm - N/A   Clear
1:15 AM 48.2 °F 48.2 °F 100% 30.05 in 10.0 mi Calm Calm - N/A   Clear
1:35 AM 46.8 °F 46.8 °F 100% 30.06 in 10.0 mi Calm Calm - N/A   Scattered Clouds
1:55 AM 50.9 °F 50.9 °F 100% 30.06 in 10.0 mi South 4.6 mph - N/A   Overcast
2:15 AM 51.4 °F 51.4 °F 100% 30.05 in 7.0 mi South 4.6 mph - N/A   Overcast
2:35 AM 51.8 °F 51.8 °F 100% 30.05 in 7.0 mi SSW 4.6 mph - N/A   Overcast
2:55 AM 52.3 °F 52.3 °F 100% 30.05 in 7.0 mi Calm Calm - N/A   Overcast
3:15 AM 52.7 °F 52.7 °F 100% 30.05 in 10.0 mi Calm Calm - N/A   Overcast
3:35 AM 52.9 °F 52.9 °F 100% 30.05 in 10.0 mi SSW 3.5 mph - N/A   Overcast
3:55 AM 52.9 °F 52.9 °F 100% 30.05 in 10.0 mi Calm Calm - N/A   Overcast
4:15 AM 53.1 °F 53.1 °F 100% 30.05 in 10.0 mi SSW 3.5 mph - N/A   Overcast
4:35 AM 53.2 °F 53.2 °F 100% 30.05 in 10.0 mi South 3.5 mph - N/A   Overcast
4:55 AM 53.4 °F 53.4 °F 100% 30.05 in 10.0 mi Calm Calm - N/A   Overcast
5:15 AM 53.6 °F 53.6 °F 100% 30.06 in 10.0 mi Calm Calm - N/A   Overcast
5:35 AM 53.6 °F 53.6 °F 100% 30.07 in 10.0 mi Calm Calm - N/A   Overcast
5:55 AM 53.6 °F 53.6 °F 100% 30.08 in 10.0 mi Calm Calm - N/A   Overcast
6:15 AM 53.2 °F 53.1 °F 99% 30.08 in 10.0 mi Calm Calm - N/A   Overcast
6:55 AM 53.1 °F 53.1 °F 100% 30.08 in 10.0 mi Calm Calm - N/A   Overcast
7:15 AM 52.9 °F 52.9 °F 100% 30.08 in 10.0 mi Calm Calm - N/A   Overcast
7:35 AM 52.9 °F 52.9 °F 100% 30.08 in 5.0 mi Calm Calm - N/A   Overcast
7:55 AM 52.7 °F 52.7 °F 100% 30.09 in 2.0 mi Calm Calm - N/A   Drizzle
8:15 AM 52.7 °F 52.7 °F 100% 30.09 in 1.5 mi Calm Calm - N/A   Heavy Drizzle
8:35 AM 52.7 °F 52.7 °F 100% 30.09 in 1.8 mi Calm Calm - N/A   Heavy Drizzle
8:55 AM 52.9 °F 52.9 °F 100% 30.09 in 5.0 mi Calm Calm - N/A   Overcast
9:15 AM 53.2 °F 53.2 °F 100% 30.09 in 1.8 mi Calm Calm - N/A Rain Rain
9:35 AM 53.6 °F 53.6 °F 100% 30.10 in 3.0 mi Calm Calm - N/A   Light Drizzle
9:55 AM 54.7 °F 54.3 °F 99% 30.10 in 10.0 mi Calm Calm - N/A   Overcast
10:15 AM 55.2 °F 52.9 °F 92% 30.10 in 10.0 mi Calm Calm - N/A   Overcast
10:35 AM 56.1 °F 53.6 °F 91% 30.10 in 10.0 mi SSW 3.5 mph - N/A   Overcast
10:55 AM 56.3 °F 52.3 °F 87% 30.09 in 10.0 mi South 3.5 mph - N/A   Overcast
11:15 AM 57.2 °F 49.1 °F 74% 30.09 in 10.0 mi SSW 3.5 mph - N/A   Mostly Cloudy
11:35 AM 56.5 °F 50.5 °F 80% 30.09 in 10.0 mi Calm Calm - N/A   Overcast
11:55 AM 57.7 °F 50.0 °F 75% 30.08 in 10.0 mi SSW 3.5 mph - N/A   Overcast
12:15 PM 57.6 °F 49.8 °F 75% 30.07 in 10.0 mi South 4.6 mph - N/A   Overcast
12:35 PM 57.4 °F 49.5 °F 75% 30.07 in 10.0 mi Calm Calm - N/A   Overcast
12:55 PM 57.2 °F 49.5 °F 75% 30.06 in 10.0 mi Calm Calm - N/A   Overcast
1:15 PM 57.2 °F 49.8 °F 76% 30.06 in 10.0 mi WSW 3.5 mph - N/A   Overcast
1:35 PM 57.4 °F 49.6 °F 75% 30.05 in 10.0 mi Calm Calm - N/A   Overcast
1:55 PM 57.6 °F 49.8 °F 75% 30.05 in 10.0 mi Calm Calm - N/A   Overcast
2:15 PM 58.1 °F 49.8 °F 74% 30.05 in 10.0 mi Calm Calm - N/A   Overcast
2:35 PM 58.1 °F 49.8 °F 74% 30.05 in 10.0 mi Calm Calm - N/A   Overcast
2:55 PM 57.7 °F 50.0 °F 75% 30.05 in 10.0 mi Calm Calm - N/A   Overcast
3:15 PM 58.3 °F 49.8 °F 73% 30.04 in 10.0 mi Calm Calm - N/A   Overcast
3:35 PM 58.5 °F 50.0 °F 73% 30.04 in 10.0 mi Calm Calm - N/A   Overcast
3:55 PM 58.5 °F 50.0 °F 73% 30.04 in 10.0 mi Calm Calm - N/A   Overcast
4:15 PM 58.6 °F 50.2 °F 73% 30.04 in 10.0 mi Calm Calm - N/A   Overcast
4:35 PM 58.6 °F 50.5 °F 74% 30.04 in 10.0 mi Calm Calm - N/A   Overcast
4:55 PM 58.8 °F 50.4 °F 73% 30.04 in 10.0 mi Calm Calm - N/A   Overcast
5:15 PM 58.5 °F 50.2 °F 74% 30.04 in 10.0 mi Calm Calm - N/A   Overcast
5:35 PM 58.3 °F 50.9 °F 76% 30.04 in 10.0 mi Calm Calm - N/A   Overcast
5:55 PM 58.1 °F 51.1 °F 77% 30.04 in 10.0 mi Calm Calm - N/A   Overcast
6:15 PM 57.4 °F 51.1 °F 79% 30.04 in 10.0 mi Calm Calm - N/A   Overcast
6:35 PM 57.4 °F 50.7 °F 78% 30.04 in 10.0 mi Calm Calm - N/A   Overcast
6:55 PM 57.0 °F 50.9 °F 80% 30.04 in 10.0 mi Calm Calm - N/A   Overcast
7:15 PM 57.0 °F 51.1 °F 81% 30.04 in 10.0 mi Calm Calm - N/A   Overcast
7:35 PM 56.8 °F 51.4 °F 82% 30.04 in 10.0 mi Calm Calm - N/A   Overcast
7:55 PM 56.7 °F 51.8 °F 84% 30.04 in 10.0 mi Calm Calm - N/A   Overcast
8:15 PM 56.5 °F 51.8 °F 84% 30.04 in 10.0 mi Calm Calm - N/A   Overcast
8:35 PM 56.3 °F 52.0 °F 85% 30.04 in 10.0 mi Calm Calm - N/A   Overcast
8:55 PM 56.3 °F 52.2 °F 86% 30.03 in 10.0 mi Calm Calm - N/A   Overcast
9:15 PM 56.1 °F 52.2 °F 87% 30.04 in 10.0 mi Calm Calm - N/A   Overcast
9:35 PM 56.3 °F 52.2 °F 86% 30.03 in 10.0 mi Calm Calm - N/A   Overcast
9:55 PM 56.3 °F 52.7 °F 88% 30.04 in 10.0 mi Calm Calm - N/A   Overcast
10:15 PM 56.3 °F 52.7 °F 88% 30.05 in 10.0 mi South 3.5 mph - N/A   Overcast
10:35 PM 56.3 °F 52.7 °F 88% 30.05 in 10.0 mi SSW 3.5 mph - N/A   Overcast
10:55 PM 56.3 °F 52.7 °F 88% 30.06 in 10.0 mi Calm Calm - N/A   Overcast
11:15 PM 55.9 °F 52.7 °F 89% 30.05 in 10.0 mi SSW 3.5 mph - N/A   Overcast
11:35 PM 55.9 °F 52.5 °F 88% 30.05 in 10.0 mi South 3.5 mph - N/A   Overcast
11:55 PM 55.8 °F 52.7 °F 89% 30.04 in 10.0 mi SSW 3.5 mph - N/A   Overcast